Tracking 34717 objects as of 14-Jul-2026
HD Live streaming from Space Station
objects crossing your sky now

ARIANE 5 R/B

Track ARIANE 5 R/B now!


NORAD ID: 26612
Int'l Code: 2000-072E
Perigee: 667.5 km
Apogee: 39,496.7 km
Inclination: 6.9 °
Period: 713.6 minutes
Semi major axis: 26453 km
RCS: 20.7538 m2 (large)
Launch date: November 16, 2000
Source: France (FR)
Launch site: FRENCH GUIANA (FRGUI)

Note: This is a ROCKET BODY
Your satellite tracking list
Your tracking list is empty




NASA's NSSDC Master Catalog

Two Line Element Set (TLE):
1 26612U 00072E   26195.02876823 -.00000499  00000-0  26829-2 0  9997
2 26612   6.9425  44.7945 7339247 109.5233 337.4329  2.01784392189179
Source of the keplerian elements: AFSPC